English version Home page |
Updated on October 18, 2024 |
プロフィール
|
軌道要素Epoch 2024 Oct. 17.0 TT = JDT 2460600.5 T 2023 Nov. 24.47032 TT Bell q 6.8583323 (2000.0) P Q z -0.0006762 Peri. 59.09143 -0.06921606 -0.53375259 +/-0.0000556 Node 294.98615 -0.86687661 +0.45027046 e 1.0046379 Incl. 111.59234 +0.49369431 +0.71579654 >From 33 observations 2024 May 29-July 12, mean residual 0".2.
|
光度変化m1 = 10.0 + 5 logΔ + 10.0 log r
|
軌道要素はM.P.E.C. 2024-R266に掲載されたものです。
|